TimeEDT,TemperatureF,Dew PointF,Humidity,Sea Level PressureIn,VisibilityMPH,Wind Direction,Wind SpeedMPH,Gust SpeedMPH,PrecipitationIn,Events,Conditions,WindDirDegrees,DateUTC
12:15 AM,52.0,52.0,100,30.09,3.0,Calm,Calm,-,N/A,,Light Drizzle,0,2013-05-09 04:15:00
12:35 AM,52.3,52.3,100,30.10,7.0,ENE,3.5,-,N/A,,Scattered Clouds,70,2013-05-09 04:35:00
12:55 AM,52.0,51.8,99,30.10,5.0,Calm,Calm,-,N/A,,Clear,0,2013-05-09 04:55:00
1:35 AM,50.2,50.2,100,30.10,0.5,Calm,Calm,-,N/A,Fog,Fog,0,2013-05-09 05:35:00
3:15 AM,49.8,49.6,99,30.08,0.5,Calm,Calm,-,N/A,Fog,Fog,0,2013-05-09 07:15:00
3:35 AM,49.3,49.1,99,30.08,0.5,Calm,Calm,-,N/A,Fog,Fog,0,2013-05-09 07:35:00
3:55 AM,49.1,49.1,100,30.08,0.5,Calm,Calm,-,N/A,Fog,Fog,0,2013-05-09 07:55:00
6:15 AM,48.2,48.2,100,30.12,0.2,Calm,Calm,-,N/A,Fog,Fog,0,2013-05-09 10:15:00
6:55 AM,48.2,48.2,100,30.12,0.2,Calm,Calm,-,N/A,Fog,Fog,0,2013-05-09 10:55:00
7:35 AM,48.2,48.2,100,30.14,0.2,Calm,Calm,-,N/A,Fog,Fog,0,2013-05-09 11:35:00
9:15 AM,52.3,52.2,99,30.15,1.0,West,3.5,-,N/A,,Overcast,260,2013-05-09 13:15:00
9:35 AM,54.1,54.1,100,30.15,2.0,Calm,Calm,-,N/A,,Overcast,0,2013-05-09 13:35:00
10:15 AM,59.0,57.0,93,30.15,10.0,Calm,Calm,-,N/A,,Clear,0,2013-05-09 14:15:00
10:55 AM,64.2,58.6,82,30.15,10.0,WSW,4.6,-,N/A,,Clear,240,2013-05-09 14:55:00
11:15 AM,65.5,59.5,81,30.15,10.0,Calm,Calm,-,N/A,,Scattered Clouds,0,2013-05-09 15:15:00
11:35 AM,68.4,59.7,74,30.15,10.0,Calm,Calm,-,N/A,,Scattered Clouds,0,2013-05-09 15:35:00
11:55 AM,69.4,58.8,69,30.15,10.0,Calm,Calm,-,N/A,,Clear,0,2013-05-09 15:55:00
12:15 PM,72.5,56.8,58,30.15,10.0,Calm,Calm,-,N/A,,Scattered Clouds,0,2013-05-09 16:15:00
12:35 PM,73.2,57.6,58,30.14,10.0,Calm,Calm,-,N/A,,Scattered Clouds,0,2013-05-09 16:35:00
12:55 PM,73.4,55.6,54,30.14,10.0,Calm,Calm,-,N/A,,Mostly Cloudy,0,2013-05-09 16:55:00
1:15 PM,71.6,56.1,58,30.14,10.0,Calm,Calm,-,N/A,,Overcast,0,2013-05-09 17:15:00
1:35 PM,73.6,57.0,56,30.14,10.0,Calm,Calm,-,N/A,,Mostly Cloudy,0,2013-05-09 17:35:00
1:55 PM,72.0,56.5,58,30.13,10.0,Calm,Calm,-,N/A,,Overcast,0,2013-05-09 17:55:00
2:15 PM,74.1,57.6,56,30.13,10.0,Calm,Calm,-,N/A,,Mostly Cloudy,0,2013-05-09 18:15:00
2:35 PM,75.0,54.3,48,30.12,10.0,SSE,3.5,-,N/A,,Mostly Cloudy,160,2013-05-09 18:35:00
2:55 PM,74.3,53.8,49,30.11,10.0,Calm,Calm,-,N/A,,Mostly Cloudy,0,2013-05-09 18:55:00
3:35 PM,77.4,54.9,46,30.09,10.0,SSW,4.6,-,N/A,,Mostly Cloudy,210,2013-05-09 19:35:00
4:15 PM,75.6,54.0,47,30.08,10.0,WSW,10.4,-,N/A,,Overcast,250,2013-05-09 20:15:00
4:35 PM,76.6,52.9,43,30.08,10.0,WSW,12.7,-,N/A,,Overcast,250,2013-05-09 20:35:00
4:55 PM,77.0,52.5,42,30.07,10.0,WSW,10.4,-,N/A,,Mostly Cloudy,250,2013-05-09 20:55:00
5:15 PM,73.6,53.6,50,30.08,10.0,West,12.7,-,N/A,,Overcast,270,2013-05-09 21:15:00
5:35 PM,75.9,54.0,46,30.08,10.0,WSW,10.4,-,N/A,,Overcast,240,2013-05-09 21:35:00
5:55 PM,76.5,54.0,46,30.08,10.0,SW,4.6,-,N/A,,Scattered Clouds,220,2013-05-09 21:55:00
6:15 PM,75.7,54.1,47,30.07,10.0,WSW,9.2,-,N/A,,Scattered Clouds,240,2013-05-09 22:15:00
6:35 PM,74.7,54.3,49,30.07,10.0,West,9.2,-,N/A,,Clear,260,2013-05-09 22:35:00
6:55 PM,75.2,52.7,45,30.07,10.0,WSW,9.2,-,N/A,,Clear,250,2013-05-09 22:55:00
7:15 PM,71.6,56.1,58,30.06,10.0,West,4.6,-,N/A,,Clear,270,2013-05-09 23:15:00
7:35 PM,71.1,55.2,57,30.06,10.0,Calm,Calm,-,N/A,,Clear,0,2013-05-09 23:35:00
7:55 PM,67.5,55.9,66,30.07,10.0,Calm,Calm,-,N/A,,Clear,0,2013-05-09 23:55:00
8:15 PM,66.6,55.8,68,30.08,10.0,Calm,Calm,-,N/A,,Clear,0,2013-05-10 00:15:00
8:35 PM,64.6,55.2,72,30.09,10.0,North,4.6,-,N/A,,Clear,350,2013-05-10 00:35:00
8:55 PM,63.0,55.4,76,30.09,10.0,Calm,Calm,-,N/A,,Clear,0,2013-05-10 00:55:00
9:15 PM,60.4,55.0,82,30.10,10.0,Calm,Calm,-,N/A,,Mostly Cloudy,0,2013-05-10 01:15:00
9:35 PM,58.1,54.5,88,30.10,10.0,Calm,Calm,-,N/A,,Mostly Cloudy,0,2013-05-10 01:35:00
9:55 PM,59.2,54.5,84,30.11,7.0,Calm,Calm,-,N/A,,Scattered Clouds,0,2013-05-10 01:55:00
10:15 PM,58.6,54.5,86,30.12,10.0,Calm,Calm,-,N/A,,Clear,0,2013-05-10 02:15:00
10:35 PM,56.5,55.0,95,30.13,10.0,Calm,Calm,-,N/A,,Clear,0,2013-05-10 02:35:00
10:55 PM,54.9,53.1,94,30.14,10.0,Calm,Calm,-,N/A,,Clear,0,2013-05-10 02:55:00
11:15 PM,56.8,53.4,88,30.13,10.0,Calm,Calm,-,N/A,,Scattered Clouds,0,2013-05-10 03:15:00
11:55 PM,55.8,53.1,91,30.15,10.0,Calm,Calm,-,N/A,,Mostly Cloudy,0,2013-05-10 03:55:00